owner,sensor,date,latitude,longitude,vertical_datum,direction_of_sea_water_velocity,sea_water_speed,upward_sea_water_velocity,qcFlag 
TABS,ioos:station:wmo:42048:1,2002-02-01T00:00:00Z,27.9396,-96.8429,2.0,221.5741029,60.35333462,-99999.0,'11111222,11111222,99999999' 
TABS,ioos:station:wmo:42048:1,2002-02-01T01:00:00Z,27.9396,-96.8429,2.0,216.4126663,61.94396984,-99999.0,'11111222,11111222,99999999' 
TABS,ioos:station:wmo:42048:1,2002-02-01T01:30:00Z,27.9396,-96.8429,2.0,217.6977442,65.03679343,-99999.0,'11111222,11111222,99999999' 
TABS,ioos:station:wmo:42048:1,2002-02-01T02:00:00Z,27.9396,-96.8429,2.0,218.3456752,67.00423419,-99999.0,'11111222,11111222,99999999' 
TABS,ioos:station:wmo:42048:1,2002-02-01T02:30:00Z,27.9396,-96.8429,2.0,219.6766431,66.15938331,-99999.0,'11111222,11111222,99999999' 
TABS,ioos:station:wmo:42048:1,2002-02-01T03:00:00Z,27.9396,-96.8429,2.0,216.0722696,65.25031801,-99999.0,'11111222,11111222,99999999' 
TABS,ioos:station:wmo:42048:1,2002-02-01T03:30:00Z,27.9396,-96.8429,2.0,214.6844398,73.01509501,-99999.0,'11111222,11111222,99999999' 
TABS,ioos:station:wmo:42048:1,2002-02-01T04:00:00Z,27.9396,-96.8429,2.0,217.6624769,72.69896079,-99999.0,'11111222,11111222,99999999' 
TABS,ioos:station:wmo:42048:1,2002-02-01T04:30:00Z,27.9396,-96.8429,2.0,216.0393294,79.08630349,-99999.0,'11111222,11111222,99999999' 
TABS,ioos:station:wmo:42048:1,2002-02-01T05:00:00Z,27.9396,-96.8429,2.0,215.5497696,80.66540089,-99999.0,'11111222,11111222,99999999' 
TABS,ioos:station:wmo:42048:1,2002-02-01T05:30:00Z,27.9396,-96.8429,2.0,214.3479383,81.36879316,-99999.0,'11111222,11111222,99999999' 
TABS,ioos:station:wmo:42048:1,2002-02-01T06:00:00Z,27.9396,-96.8429,2.0,211.9290653,84.67058521,-99999.0,'11111222,11111222,99999999' 
TABS,ioos:station:wmo:42048:1,2002-02-01T06:30:00Z,27.9396,-96.8429,2.0,211.7787207,83.16808282,-99999.0,'11111222,11111222,99999999' 
TABS,ioos:station:wmo:42048:1,2002-02-01T07:00:00Z,27.9396,-96.8429,2.0,212.3782441,93.42489443,-99999.0,'11111222,11111222,99999999' 
TABS,ioos:station:wmo:42048:1,2002-02-01T07:30:00Z,27.9396,-96.8429,2.0,213.8369528,96.09657902,-99999.0,'11111222,11111222,99999999' 
TABS,ioos:station:wmo:42048:1,2002-02-01T08:00:00Z,27.9396,-96.8429,2.0,213.2512871,95.67471819,-99999.0,'11111222,11111222,99999999' 
TABS,ioos:station:wmo:42048:1,2002-02-01T08:30:00Z,27.9396,-96.8429,2.0,210.8977758,83.75653407,-99999.0,'11111222,11111222,99999999' 
TABS,ioos:station:wmo:42048:1,2002-02-01T09:00:00Z,27.9396,-96.8429,2.0,206.881358,88.22317269,-99999.0,'11111222,11111222,99999999' 
TABS,ioos:station:wmo:42048:1,2002-02-01T09:30:00Z,27.9396,-96.8429,2.0,202.2287794,79.61723683,-99999.0,'11111222,11111222,99999999' 
TABS,ioos:station:wmo:42048:1,2002-02-01T10:00:00Z,27.9396,-96.8429,2.0,202.7825785,96.81346859,-99999.0,'11111222,11111222,99999999' 
TABS,ioos:station:wmo:42048:1,2002-02-01T10:30:00Z,27.9396,-96.8429,2.0,204.3068049,73.44030093,-99999.0,'11111222,11111222,99999999' 
TABS,ioos:station:wmo:42048:1,2002-02-01T11:00:00Z,27.9396,-96.8429,2.0,201.3641372,96.89864602,-99999.0,'11111222,11111222,99999999' 
TABS,ioos:station:wmo:42048:1,2002-02-01T11:30:00Z,27.9396,-96.8429,2.0,198.5955452,99.12514615,-99999.0,'11111222,11111222,99999999' 
TABS,ioos:station:wmo:42048:1,2002-02-01T12:00:00Z,27.9396,-96.8429,2.0,201.4632469,102.6485972,-99999.0,'11111222,11111222,99999999' 
TABS,ioos:station:wmo:42048:1,2002-02-01T12:30:00Z,27.9396,-96.8429,2.0,204.4940612,102.6041349,-99999.0,'11111222,11111222,99999999' 
TABS,ioos:station:wmo:42048:1,2002-02-01T13:00:00Z,27.9396,-96.8429,2.0,201.6223409,113.0555863,-99999.0,'11111222,11111222,99999999' 
TABS,ioos:station:wmo:42048:1,2002-02-01T13:30:00Z,27.9396,-96.8429,2.0,202.0822824,109.75098,-99999.0,'11111222,11111222,99999999' 
TABS,ioos:station:wmo:42048:1,2002-02-01T14:00:00Z,27.9396,-96.8429,2.0,199.3639473,109.3880839,-99999.0,'11111222,11111222,99999999' 
TABS,ioos:station:wmo:42048:1,2002-02-01T14:30:00Z,27.9396,-96.8429,2.0,203.3627284,96.55658289,-99999.0,'11111222,11111222,99999999' 
TABS,ioos:station:wmo:42048:1,2002-02-01T15:00:00Z,27.9396,-96.8429,2.0,200.9320209,103.2009157,-99999.0,'11111222,11111222,99999999' 
TABS,ioos:station:wmo:42048:1,2002-02-01T15:30:00Z,27.9396,-96.8429,2.0,198.0905814,105.3057453,-99999.0,'11111222,11111222,99999999' 
TABS,ioos:station:wmo:42048:1,2002-02-01T16:00:00Z,27.9396,-96.8429,2.0,201.2420403,108.4698115,-99999.0,'11111222,11111222,99999999' 
TABS,ioos:station:wmo:42048:1,2002-02-01T16:30:00Z,27.9396,-96.8429,2.0,204.1786011,89.26073325,-99999.0,'11111222,11111222,99999999' 
TABS,ioos:station:wmo:42048:1,2002-02-01T17:00:00Z,27.9396,-96.8429,2.0,201.7832499,89.16719184,-99999.0,'11111222,11111222,99999999' 
TABS,ioos:station:wmo:42048:1,2002-02-01T17:30:00Z,27.9396,-96.8429,2.0,203.9272985,83.28784605,-99999.0,'11111222,11111222,99999999' 
TABS,ioos:station:wmo:42048:1,2002-02-01T18:00:00Z,27.9396,-96.8429,2.0,201.8204395,77.21212599,-99999.0,'11111222,11111222,99999999' 
TABS,ioos:station:wmo:42048:1,2002-02-01T18:30:00Z,27.9396,-96.8429,2.0,204.0395377,69.22433387,-99999.0,'11111222,11111222,99999999' 
TABS,ioos:station:wmo:42048:1,2002-02-01T19:00:00Z,27.9396,-96.8429,2.0,199.6189696,63.49628729,-99999.0,'11111222,11111222,99999999' 
TABS,ioos:station:wmo:42048:1,2002-02-01T19:30:00Z,27.9396,-96.8429,2.0,197.874705,61.15188386,-99999.0,'11111222,11111222,99999999' 
TABS,ioos:station:wmo:42048:1,2002-02-01T20:00:00Z,27.9396,-96.8429,2.0,195.0093213,61.39462517,-99999.0,'11111222,11111222,99999999' 
TABS,ioos:station:wmo:42048:1,2002-02-01T20:30:00Z,27.9396,-96.8429,2.0,199.4866644,63.04114371,-99999.0,'11111222,11111222,99999999' 
TABS,ioos:station:wmo:42048:1,2002-02-01T21:00:00Z,27.9396,-96.8429,2.0,201.1425872,63.65499588,-99999.0,'11111222,11111222,99999999' 
TABS,ioos:station:wmo:42048:1,2002-02-01T22:00:00Z,27.9396,-96.8429,2.0,202.0753333,67.13149038,-99999.0,'11111222,11111222,99999999' 
TABS,ioos:station:wmo:42048:1,2002-02-01T22:30:00Z,27.9396,-96.8429,2.0,200.4806095,63.33336009,-99999.0,'11111222,11111222,99999999' 
TABS,ioos:station:wmo:42048:1,2002-02-01T23:00:00Z,27.9396,-96.8429,2.0,196.9434889,67.56280782,-99999.0,'11111222,11111222,99999999' 
TABS,ioos:station:wmo:42048:1,2002-02-01T23:30:00Z,27.9396,-96.8429,2.0,198.0900831,70.97860593,-99999.0,'11111222,11111222,99999999' 
TABS,ioos:station:wmo:42048:1,2002-02-02T00:00:00Z,27.9396,-96.8429,2.0,197.0488795,73.8766032,-99999.0,'11111222,11111222,99999999' 
TABS,ioos:station:wmo:42048:1,2002-02-02T00:30:00Z,27.9396,-96.8429,2.0,199.584937,73.56624022,-99999.0,'11111222,11111222,99999999' 
TABS,ioos:station:wmo:42048:1,2002-02-02T01:00:00Z,27.9396,-96.8429,2.0,200.1564212,73.04364312,-99999.0,'11111222,11111222,99999999' 
TABS,ioos:station:wmo:42048:1,2002-02-02T01:30:00Z,27.9396,-96.8429,2.0,201.7530443,77.41269986,-99999.0,'11111222,11111222,99999999' 
TABS,ioos:station:wmo:42048:1,2002-02-02T02:00:00Z,27.9396,-96.8429,2.0,201.415773,75.09503645,-99999.0,'11111222,11111222,99999999' 
TABS,ioos:station:wmo:42048:1,2002-02-02T02:30:00Z,27.9396,-96.8429,2.0,213.0433165,74.23747908,-99999.0,'11111222,11111222,99999999' 
TABS,ioos:station:wmo:42048:1,2002-02-02T03:00:00Z,27.9396,-96.8429,2.0,215.613216,78.17079314,-99999.0,'11111222,11111222,99999999' 
TABS,ioos:station:wmo:42048:1,2002-02-02T03:30:00Z,27.9396,-96.8429,2.0,211.4967785,85.3088067,-99999.0,'11111222,11111222,99999999' 
TABS,ioos:station:wmo:42048:1,2002-02-02T04:00:00Z,27.9396,-96.8429,2.0,211.4362648,81.678982,-99999.0,'11111222,11111222,99999999' 
TABS,ioos:station:wmo:42048:1,2002-02-02T04:30:00Z,27.9396,-96.8429,2.0,211.8864028,71.12283037,-99999.0,'11111222,11111222,99999999' 
TABS,ioos:station:wmo:42048:1,2002-02-02T05:00:00Z,27.9396,-96.8429,2.0,212.3057202,69.69899999,-99999.0,'11111222,11111222,99999999' 
TABS,ioos:station:wmo:42048:1,2002-02-02T05:30:00Z,27.9396,-96.8429,2.0,213.4773704,72.56915185,-99999.0,'11111222,11111222,99999999' 
TABS,ioos:station:wmo:42048:1,2002-02-02T06:00:00Z,27.9396,-96.8429,2.0,215.6596034,68.66531148,-99999.0,'11111222,11111222,99999999' 
TABS,ioos:station:wmo:42048:1,2002-02-02T06:30:00Z,27.9396,-96.8429,2.0,213.8826922,64.25128792,-99999.0,'11111222,11111222,99999999' 
TABS,ioos:station:wmo:42048:1,2002-02-02T07:00:00Z,27.9396,-96.8429,2.0,215.4814598,64.31287429,-99999.0,'11111222,11111222,99999999' 
TABS,ioos:station:wmo:42048:1,2002-02-02T07:30:00Z,27.9396,-96.8429,2.0,216.8026277,65.01804442,-99999.0,'11111222,11111222,99999999' 
TABS,ioos:station:wmo:42048:1,2002-02-02T08:00:00Z,27.9396,-96.8429,2.0,214.8990229,48.10044594,-99999.0,'11111222,11111222,99999999' 
TABS,ioos:station:wmo:42048:1,2002-02-02T08:30:00Z,27.9396,-96.8429,2.0,214.368786,35.33965761,-99999.0,'11111222,11111222,99999999' 
TABS,ioos:station:wmo:42048:1,2002-02-02T09:00:00Z,27.9396,-96.8429,2.0,219.3287775,45.7261118,-99999.0,'11111222,11111222,99999999' 
TABS,ioos:station:wmo:42048:1,2002-02-02T09:30:00Z,27.9396,-96.8429,2.0,219.0214031,56.62192685,-99999.0,'11111222,11111222,99999999' 
TABS,ioos:station:wmo:42048:1,2002-02-02T10:00:00Z,27.9396,-96.8429,2.0,219.5862231,52.91546844,-99999.0,'11111222,11111222,99999999' 
TABS,ioos:station:wmo:42048:1,2002-02-02T10:30:00Z,27.9396,-96.8429,2.0,219.7818631,50.15076969,-99999.0,'11111222,11111222,99999999' 
TABS,ioos:station:wmo:42048:1,2002-02-02T11:00:00Z,27.9396,-96.8429,2.0,219.4240439,54.07373207,-99999.0,'11111222,11111222,99999999' 
TABS,ioos:station:wmo:42048:1,2002-02-02T11:30:00Z,27.9396,-96.8429,2.0,215.3579258,49.73330876,-99999.0,'11111222,11111222,99999999' 
TABS,ioos:station:wmo:42048:1,2002-02-02T12:00:00Z,27.9396,-96.8429,2.0,215.8894182,59.97677634,-99999.0,'11111222,11111222,99999999' 
TABS,ioos:station:wmo:42048:1,2002-02-02T12:30:00Z,27.9396,-96.8429,2.0,213.7872198,63.60201648,-99999.0,'11111222,11111222,99999999' 
TABS,ioos:station:wmo:42048:1,2002-02-02T13:00:00Z,27.9396,-96.8429,2.0,216.0013264,53.98019822,-99999.0,'11111222,11111222,99999999' 
TABS,ioos:station:wmo:42048:1,2002-02-02T13:30:00Z,27.9396,-96.8429,2.0,214.9954093,51.00128332,-99999.0,'11111222,11111222,99999999' 
TABS,ioos:station:wmo:42048:1,2002-02-02T14:00:00Z,27.9396,-96.8429,2.0,217.654703,56.1952756,-99999.0,'11111222,11111222,99999999' 
TABS,ioos:station:wmo:42048:1,2002-02-02T14:30:00Z,27.9396,-96.8429,2.0,211.2273871,52.87014469,-99999.0,'11111222,11111222,99999999' 
TABS,ioos:station:wmo:42048:1,2002-02-02T15:00:00Z,27.9396,-96.8429,2.0,213.146505,48.26386019,-99999.0,'11111222,11111222,99999999' 
TABS,ioos:station:wmo:42048:1,2002-02-02T15:30:00Z,27.9396,-96.8429,2.0,214.6581723,53.33372104,-99999.0,'11111222,11111222,99999999' 
TABS,ioos:station:wmo:42048:1,2002-02-02T16:00:00Z,27.9396,-96.8429,2.0,212.3864546,52.55479902,-99999.0,'11111222,11111222,99999999' 
TABS,ioos:station:wmo:42048:1,2002-02-02T16:30:00Z,27.9396,-96.8429,2.0,211.9180192,55.79623285,-99999.0,'11111222,11111222,99999999' 
TABS,ioos:station:wmo:42048:1,2002-02-02T17:00:00Z,27.9396,-96.8429,2.0,214.5396851,53.47620873,-99999.0,'11111222,11111222,99999999' 
TABS,ioos:station:wmo:42048:1,2002-02-02T17:30:00Z,27.9396,-96.8429,2.0,210.9960506,54.29303086,-99999.0,'11111222,11111222,99999999' 
TABS,ioos:station:wmo:42048:1,2002-02-02T18:00:00Z,27.9396,-96.8429,2.0,214.5601066,59.16005409,-99999.0,'11111222,11111222,99999999' 
TABS,ioos:station:wmo:42048:1,2002-02-02T18:30:00Z,27.9396,-96.8429,2.0,215.4392276,54.96312673,-99999.0,'11111222,11111222,99999999' 
TABS,ioos:station:wmo:42048:1,2002-02-02T19:00:00Z,27.9396,-96.8429,2.0,212.9960615,50.62565061,-99999.0,'11111222,11111222,99999999' 
TABS,ioos:station:wmo:42048:1,2002-02-02T19:30:00Z,27.9396,-96.8429,2.0,213.6723773,54.79328791,-99999.0,'11111222,11111222,99999999' 
TABS,ioos:station:wmo:42048:1,2002-02-02T20:00:00Z,27.9396,-96.8429,2.0,214.5246909,55.57853992,-99999.0,'11111222,11111222,99999999' 
TABS,ioos:station:wmo:42048:1,2002-02-02T20:30:00Z,27.9396,-96.8429,2.0,205.3951918,58.06042111,-99999.0,'11111222,11111222,99999999' 
TABS,ioos:station:wmo:42048:1,2002-02-02T21:00:00Z,27.9396,-96.8429,2.0,212.946761,57.532795,-99999.0,'11111222,11111222,99999999' 
TABS,ioos:station:wmo:42048:1,2002-02-02T21:30:00Z,27.9396,-96.8429,2.0,210.4445892,70.25727649,-99999.0,'11111222,11111222,99999999' 
TABS,ioos:station:wmo:42048:1,2002-02-02T22:00:00Z,27.9396,-96.8429,2.0,208.2453986,55.65731309,-99999.0,'11111222,11111222,99999999' 
TABS,ioos:station:wmo:42048:1,2002-02-02T22:30:00Z,27.9396,-96.8429,2.0,221.1819583,44.17907423,-99999.0,'11111222,11111222,99999999' 
TABS,ioos:station:wmo:42048:1,2002-02-02T23:00:00Z,27.9396,-96.8429,2.0,215.6749677,41.63304937,-99999.0,'11111222,11111222,99999999' 
TABS,ioos:station:wmo:42048:1,2002-02-02T23:30:00Z,27.9396,-96.8429,2.0,209.2139875,57.85972347,-99999.0,'11111222,11111222,99999999' 
TABS,ioos:station:wmo:42048:1,2002-02-03T00:00:00Z,27.9396,-96.8429,2.0,206.1744461,76.14882599,-99999.0,'11111222,11111222,99999999' 
TABS,ioos:station:wmo:42048:1,2002-02-03T00:30:00Z,27.9396,-96.8429,2.0,209.1960102,86.01831026,-99999.0,'11111222,11111222,99999999' 
TABS,ioos:station:wmo:42048:1,2002-02-03T01:00:00Z,27.9396,-96.8429,2.0,208.7123227,88.19432748,-99999.0,'11111222,11111222,99999999' 
TABS,ioos:station:wmo:42048:1,2002-02-03T01:30:00Z,27.9396,-96.8429,2.0,206.2091901,90.79505273,-99999.0,'11111222,11111222,99999999' 
TABS,ioos:station:wmo:42048:1,2002-02-03T02:00:00Z,27.9396,-96.8429,2.0,207.6449265,93.70789988,-99999.0,'11111222,11111222,99999999' 
TABS,ioos:station:wmo:42048:1,2002-02-03T02:30:00Z,27.9396,-96.8429,2.0,206.0664983,95.64918871,-99999.0,'11111222,11111222,99999999' 
TABS,ioos:station:wmo:42048:1,2002-02-03T03:00:00Z,27.9396,-96.8429,2.0,202.8476407,85.81298736,-99999.0,'11111222,11111222,99999999' 
TABS,ioos:station:wmo:42048:1,2002-02-03T03:30:00Z,27.9396,-96.8429,2.0,200.6358216,85.46352906,-99999.0,'11111222,11111222,99999999' 
TABS,ioos:station:wmo:42048:1,2002-02-03T04:00:00Z,27.9396,-96.8429,2.0,200.2980834,85.87278789,-99999.0,'11111222,11111222,99999999' 
TABS,ioos:station:wmo:42048:1,2002-02-03T04:30:00Z,27.9396,-96.8429,2.0,196.323075,84.96485156,-99999.0,'11111222,11111222,99999999' 
TABS,ioos:station:wmo:42048:1,2002-02-03T05:00:00Z,27.9396,-96.8429,2.0,195.3221373,86.66040849,-99999.0,'11111222,11111222,99999999' 
TABS,ioos:station:wmo:42048:1,2002-02-03T05:30:00Z,27.9396,-96.8429,2.0,196.466879,82.51453811,-99999.0,'11111222,11111222,99999999' 
TABS,ioos:station:wmo:42048:1,2002-02-03T06:00:00Z,27.9396,-96.8429,2.0,195.8646018,81.0991307,-99999.0,'11111222,11111222,99999999' 
TABS,ioos:station:wmo:42048:1,2002-02-03T06:30:00Z,27.9396,-96.8429,2.0,203.1308398,64.65795852,-99999.0,'11111222,11111222,99999999' 
TABS,ioos:station:wmo:42048:1,2002-02-03T07:00:00Z,27.9396,-96.8429,2.0,211.9333194,48.22888139,-99999.0,'11111222,11111222,99999999' 
TABS,ioos:station:wmo:42048:1,2002-02-03T07:30:00Z,27.9396,-96.8429,2.0,211.4066209,44.34743059,-99999.0,'11111222,11111222,99999999' 
TABS,ioos:station:wmo:42048:1,2002-02-03T08:00:00Z,27.9396,-96.8429,2.0,197.5002925,62.05213937,-99999.0,'11111222,11111222,99999999' 
TABS,ioos:station:wmo:42048:1,2002-02-03T08:30:00Z,27.9396,-96.8429,2.0,207.7839597,52.96655265,-99999.0,'11111222,11111222,99999999' 
TABS,ioos:station:wmo:42048:1,2002-02-03T09:00:00Z,27.9396,-96.8429,2.0,207.7824737,46.29706254,-99999.0,'11111222,11111222,99999999' 
TABS,ioos:station:wmo:42048:1,2002-02-03T09:30:00Z,27.9396,-96.8429,2.0,202.2804792,44.83770846,-99999.0,'11111222,11111222,99999999' 
TABS,ioos:station:wmo:42048:1,2002-02-03T10:00:00Z,27.9396,-96.8429,2.0,202.7397114,41.83163038,-99999.0,'11111222,11111222,99999999' 
TABS,ioos:station:wmo:42048:1,2002-02-03T10:30:00Z,27.9396,-96.8429,2.0,208.4872384,37.1933287,-99999.0,'11111222,11111222,99999999' 
TABS,ioos:station:wmo:42048:1,2002-02-03T11:00:00Z,27.9396,-96.8429,2.0,206.9445192,44.53450797,-99999.0,'11111222,11111222,99999999' 
TABS,ioos:station:wmo:42048:1,2002-02-03T11:30:00Z,27.9396,-96.8429,2.0,213.4128966,49.35779979,-99999.0,'11111222,11111222,99999999' 
TABS,ioos:station:wmo:42048:1,2002-02-03T12:00:00Z,27.9396,-96.8429,2.0,216.0647925,50.26295853,-99999.0,'11111222,11111222,99999999' 
TABS,ioos:station:wmo:42048:1,2002-02-03T12:30:00Z,27.9396,-96.8429,2.0,214.8634965,53.07653059,-99999.0,'11111222,11111222,99999999' 
TABS,ioos:station:wmo:42048:1,2002-02-03T13:00:00Z,27.9396,-96.8429,2.0,212.6561979,50.27788579,-99999.0,'11111222,11111222,99999999' 
TABS,ioos:station:wmo:42048:1,2002-02-03T13:30:00Z,27.9396,-96.8429,2.0,214.0372892,42.98450884,-99999.0,'11111222,11111222,99999999' 
TABS,ioos:station:wmo:42048:1,2002-02-03T14:00:00Z,27.9396,-96.8429,2.0,209.1048435,52.8768229,-99999.0,'11111222,11111222,99999999' 
TABS,ioos:station:wmo:42048:1,2002-02-03T14:30:00Z,27.9396,-96.8429,2.0,207.0216794,54.95982624,-99999.0,'11111222,11111222,99999999' 
TABS,ioos:station:wmo:42048:1,2002-02-03T15:00:00Z,27.9396,-96.8429,2.0,202.7971387,52.13255797,-99999.0,'11111222,11111222,99999999' 
TABS,ioos:station:wmo:42048:1,2002-02-03T15:30:00Z,27.9396,-96.8429,2.0,202.9278492,50.90150587,-99999.0,'11111222,11111222,99999999' 
TABS,ioos:station:wmo:42048:1,2002-02-03T16:00:00Z,27.9396,-96.8429,2.0,221.0448831,46.34099049,-99999.0,'11111222,11111222,99999999' 
TABS,ioos:station:wmo:42048:1,2002-02-03T16:30:00Z,27.9396,-96.8429,2.0,219.9954838,38.18080801,-99999.0,'11111222,11111222,99999999' 
TABS,ioos:station:wmo:42048:1,2002-02-03T17:00:00Z,27.9396,-96.8429,2.0,225.3869081,28.24956106,-99999.0,'11111222,11111222,99999999' 
TABS,ioos:station:wmo:42048:1,2002-02-03T17:30:00Z,27.9396,-96.8429,2.0,226.6128935,52.49520073,-99999.0,'11111222,11111222,99999999' 
TABS,ioos:station:wmo:42048:1,2002-02-03T18:00:00Z,27.9396,-96.8429,2.0,227.677272,59.33447059,-99999.0,'11111222,11111222,99999999' 
TABS,ioos:station:wmo:42048:1,2002-02-03T18:30:00Z,27.9396,-96.8429,2.0,225.3131235,50.41039675,-99999.0,'11111222,11111222,99999999' 
TABS,ioos:station:wmo:42048:1,2002-02-03T19:00:00Z,27.9396,-96.8429,2.0,222.6060829,50.62351726,-99999.0,'11111222,11111222,99999999' 
TABS,ioos:station:wmo:42048:1,2002-02-03T19:30:00Z,27.9396,-96.8429,2.0,221.170475,46.27029825,-99999.0,'11111222,11111222,99999999' 
TABS,ioos:station:wmo:42048:1,2002-02-03T20:00:00Z,27.9396,-96.8429,2.0,215.5942784,42.14443973,-99999.0,'11111222,11111222,99999999' 
TABS,ioos:station:wmo:42048:1,2002-02-03T20:30:00Z,27.9396,-96.8429,2.0,219.0462193,39.33638138,-99999.0,'11111222,11111222,99999999' 
TABS,ioos:station:wmo:42048:1,2002-02-03T21:00:00Z,27.9396,-96.8429,2.0,214.6743709,40.67385032,-99999.0,'11111222,11111222,99999999' 
TABS,ioos:station:wmo:42048:1,2002-02-03T21:30:00Z,27.9396,-96.8429,2.0,208.9041631,42.61919873,-99999.0,'11111222,11111222,99999999' 
TABS,ioos:station:wmo:42048:1,2002-02-03T22:00:00Z,27.9396,-96.8429,2.0,216.931077,48.4640279,-99999.0,'11111222,11111222,99999999' 
TABS,ioos:station:wmo:42048:1,2002-02-03T22:30:00Z,27.9396,-96.8429,2.0,215.0958109,44.19517734,-99999.0,'11111222,11111222,99999999' 
TABS,ioos:station:wmo:42048:1,2002-02-03T23:00:00Z,27.9396,-96.8429,2.0,213.12499,41.92350415,-99999.0,'11111222,11111222,99999999' 
TABS,ioos:station:wmo:42048:1,2002-02-03T23:30:00Z,27.9396,-96.8429,2.0,215.0803337,39.2011135,-99999.0,'11111222,11111222,99999999' 
TABS,ioos:station:wmo:42048:1,2002-02-04T00:00:00Z,27.9396,-96.8429,2.0,212.746824,46.34593078,-99999.0,'11111222,11111222,99999999' 
TABS,ioos:station:wmo:42048:1,2002-02-04T00:30:00Z,27.9396,-96.8429,2.0,220.194824,53.85867804,-99999.0,'11111222,11111222,99999999' 
TABS,ioos:station:wmo:42048:1,2002-02-04T01:00:00Z,27.9396,-96.8429,2.0,218.4676635,61.10176511,-99999.0,'11111222,11111222,99999999' 
TABS,ioos:station:wmo:42048:1,2002-02-04T01:30:00Z,27.9396,-96.8429,2.0,212.4183893,71.12452812,-99999.0,'11111222,11111222,99999999' 
TABS,ioos:station:wmo:42048:1,2002-02-04T02:00:00Z,27.9396,-96.8429,2.0,211.3456773,71.47191057,-99999.0,'11111222,11111222,99999999' 
TABS,ioos:station:wmo:42048:1,2002-02-04T02:30:00Z,27.9396,-96.8429,2.0,213.9194445,74.72703728,-99999.0,'11111222,11111222,99999999' 
TABS,ioos:station:wmo:42048:1,2002-02-04T03:00:00Z,27.9396,-96.8429,2.0,209.5457667,68.62387048,-99999.0,'11111222,11111222,99999999' 
TABS,ioos:station:wmo:42048:1,2002-02-04T03:30:00Z,27.9396,-96.8429,2.0,211.4448108,64.71384473,-99999.0,'11111222,11111222,99999999' 
TABS,ioos:station:wmo:42048:1,2002-02-04T04:00:00Z,27.9396,-96.8429,2.0,211.7746027,63.23786524,-99999.0,'11111222,11111222,99999999' 
TABS,ioos:station:wmo:42048:1,2002-02-04T04:30:00Z,27.9396,-96.8429,2.0,210.3141909,65.37945855,-99999.0,'11111222,11111222,99999999' 
TABS,ioos:station:wmo:42048:1,2002-02-04T05:00:00Z,27.9396,-96.8429,2.0,209.0423717,65.17522535,-99999.0,'11111222,11111222,99999999' 
TABS,ioos:station:wmo:42048:1,2002-02-04T05:30:00Z,27.9396,-96.8429,2.0,212.5171264,61.79822408,-99999.0,'11111222,11111222,99999999' 
TABS,ioos:station:wmo:42048:1,2002-02-04T06:00:00Z,27.9396,-96.8429,2.0,214.506865,64.76506002,-99999.0,'11111222,11111222,99999999' 
TABS,ioos:station:wmo:42048:1,2002-02-04T06:30:00Z,27.9396,-96.8429,2.0,216.4376835,64.73583938,-99999.0,'11111222,11111222,99999999' 
TABS,ioos:station:wmo:42048:1,2002-02-04T07:00:00Z,27.9396,-96.8429,2.0,219.6682078,64.22860422,-99999.0,'11111222,11111222,99999999' 
TABS,ioos:station:wmo:42048:1,2002-02-04T07:30:00Z,27.9396,-96.8429,2.0,219.3779691,62.14954948,-99999.0,'11111222,11111222,99999999' 
TABS,ioos:station:wmo:42048:1,2002-02-04T08:00:00Z,27.9396,-96.8429,2.0,219.1772989,58.41137218,-99999.0,'11111222,11111222,99999999' 
TABS,ioos:station:wmo:42048:1,2002-02-04T08:30:00Z,27.9396,-96.8429,2.0,214.5495854,56.37220769,-99999.0,'11111222,11111222,99999999' 
TABS,ioos:station:wmo:42048:1,2002-02-04T09:00:00Z,27.9396,-96.8429,2.0,215.2525274,54.71378985,-99999.0,'11111222,11111222,99999999' 
TABS,ioos:station:wmo:42048:1,2002-02-04T09:30:00Z,27.9396,-96.8429,2.0,211.9701682,55.63929906,-99999.0,'11111222,11111222,99999999' 
TABS,ioos:station:wmo:42048:1,2002-02-04T10:00:00Z,27.9396,-96.8429,2.0,207.8665033,51.7738631,-99999.0,'11111222,11111222,99999999' 
TABS,ioos:station:wmo:42048:1,2002-02-04T10:30:00Z,27.9396,-96.8429,2.0,211.5536918,46.28306386,-99999.0,'11111222,11111222,99999999' 
TABS,ioos:station:wmo:42048:1,2002-02-04T11:00:00Z,27.9396,-96.8429,2.0,215.1511951,44.15185613,-99999.0,'11111222,11111222,99999999' 
TABS,ioos:station:wmo:42048:1,2002-02-04T11:30:00Z,27.9396,-96.8429,2.0,219.0450302,44.09978345,-99999.0,'11111222,11111222,99999999' 
TABS,ioos:station:wmo:42048:1,2002-02-04T12:00:00Z,27.9396,-96.8429,2.0,223.9744086,45.04991454,-99999.0,'11111222,11111222,99999999' 
TABS,ioos:station:wmo:42048:1,2002-02-04T12:30:00Z,27.9396,-96.8429,2.0,223.5886803,60.01620864,-99999.0,'11111222,11111222,99999999' 
TABS,ioos:station:wmo:42048:1,2002-02-04T13:00:00Z,27.9396,-96.8429,2.0,221.6161059,58.34609584,-99999.0,'11111222,11111222,99999999' 
TABS,ioos:station:wmo:42048:1,2002-02-04T13:30:00Z,27.9396,-96.8429,2.0,218.4611088,51.41583414,-99999.0,'11111222,11111222,99999999' 
TABS,ioos:station:wmo:42048:1,2002-02-04T14:00:00Z,27.9396,-96.8429,2.0,217.7298755,54.48214111,-99999.0,'11111222,11111222,99999999' 
TABS,ioos:station:wmo:42048:1,2002-02-04T14:30:00Z,27.9396,-96.8429,2.0,220.2041328,54.80879491,-99999.0,'11111222,11111222,99999999' 
TABS,ioos:station:wmo:42048:1,2002-02-04T15:00:00Z,27.9396,-96.8429,2.0,220.9949585,50.32037858,-99999.0,'11111222,11111222,99999999' 
TABS,ioos:station:wmo:42048:1,2002-02-04T15:30:00Z,27.9396,-96.8429,2.0,217.1052472,44.73837838,-99999.0,'11111222,11111222,99999999' 
TABS,ioos:station:wmo:42048:1,2002-02-04T16:00:00Z,27.9396,-96.8429,2.0,216.1418663,43.30349293,-99999.0,'11111222,11111222,99999999' 
TABS,ioos:station:wmo:42048:1,2002-02-04T16:30:00Z,27.9396,-96.8429,2.0,220.0758694,46.62899098,-99999.0,'11111222,11111222,99999999' 
TABS,ioos:station:wmo:42048:1,2002-02-04T17:00:00Z,27.9396,-96.8429,2.0,223.3884954,51.05208027,-99999.0,'11111222,11111222,99999999' 